This is the latest recevied weather packets stored in our database for station/object CE3TDM-10. If no packets are shown the sender has not sent any weather packets the latest 10 day(s).
| Time | Temp. | Humidity | Pressure | Rain* | Wind** | Luminosity | Snow |
|---|---|---|---|---|---|---|---|
| 1787618938 | 23.33° C | 40% | 923 hPa | - | - | - | - |
| 1787618038 | 23.33° C | 39% | 922.5 hPa | - | - | - | - |
| 1787617138 | 23.33° C | 39% | 922.7 hPa | - | - | - | - |
| 1787614437 | 23.89° C | 38% | 921.7 hPa | - | - | - | - |
| 1787613537 | 24.44° C | 39% | 922.6 hPa | - | - | - | - |
| 1787612637 | 23.89° C | 37% | 922.1 hPa | - | - | - | - |
| 1787611737 | 24.44° C | 37% | 922.8 hPa | - | - | - | - |
| 1787610837 | 24.44° C | 37% | 922.4 hPa | - | - | - | - |
| 1787609937 | 23.89° C | 37% | 922 hPa | - | - | - | - |
| 1787609037 | 23.89° C | 37% | 922.1 hPa | - | - | - | - |
| 1787608137 | 23.89° C | 37% | 922.6 hPa | - | - | - | - |
| 1787607237 | 23.89° C | 37% | 922.7 hPa | - | - | - | - |
| 1787606337 | 23.89° C | 37% | 922.2 hPa | - | - | - | - |
| 1787604537 | 24.44° C | 36% | 923.1 hPa | - | - | - | - |
| 1787603636 | 24.44° C | 36% | 922.5 hPa | - | - | - | - |
| 1787602736 | 24.44° C | 36% | 921.7 hPa | - | - | - | - |
| 1787601836 | 25.56° C | 35% | 922.5 hPa | - | - | - | - |
| 1787600936 | 25.56° C | 36% | 920.9 hPa | - | - | - | - |
| 1787600038 | 26.11° C | 35% | 921.7 hPa | - | - | - | - |
| 1787599137 | 26.11° C | 35% | 922 hPa | - | - | - | - |
| 1787598236 | 26.11° C | 34% | 922.3 hPa | - | - | - | - |
| 1787597336 | 26.67° C | 34% | 921.1 hPa | - | - | - | - |
| 1787595536 | 27.22° C | 34% | 922.1 hPa | - | - | - | - |
| 1787594636 | 27.22° C | 34% | 922.4 hPa | - | - | - | - |
| 1787593737 | 27.78° C | 33% | 922.6 hPa | - | - | - | - |
* Rain since midnight (hover to see other rain measurements)
** Current wind speed in m/s (hover to see current wind gust speed)